GW1230 Weather Reports


Display with metric or nautical units.
time (UTC)temp
F
wind
direction
speed
MPH
gust
MPH
rain 1hr
in
rain 24hr
in
rain mn
in
humidity
%
barometer
mb
20260902112858 61 200 4.0 5.0 0.00 0.00 0.00 85 1008.1
20260902112355 61 187 8.0 9.0 0.00 0.00 0.00 85 1008.1
20260902111850 61 169 7.0 9.0 0.00 0.00 0.00 85 1008.3
20260902111347 61 236 1.0 1.0 0.00 0.00 0.00 85 1008.3
20260902110842 61 188 7.0 11.0 0.00 0.00 0.00 86 1008.3
20260902110338 60 210 7.0 7.0 0.00 0.00 0.00 86 1008.1
20260902105837 60 238 4.0 6.0 0.00 0.00 0.00 86 1008.3
20260902105332 60 185 5.0 6.0 0.00 0.00 0.00 87 1008.2
20260902104827 60 234 4.0 5.0 0.00 0.00 0.00 87 1008.4
20260902104324 60 198 1.0 2.0 0.00 0.00 0.00 87 1008.3
20260902103823 60 222 5.0 6.0 0.00 0.00 0.00 87 1008.4
20260902103318 60 189 4.0 5.0 0.00 0.00 0.00 88 1008.7
20260902102813 60 206 6.0 10.0 0.00 0.00 0.00 88 1008.5
20260902102308 60 184 5.0 6.0 0.00 0.00 0.00 88 1008.5
20260902101801 60 185 6.0 7.0 0.00 0.00 0.00 88 1008.6
20260902101301 60 174 7.0 8.0 0.00 0.00 0.00 88 1008.5
20260902100755 60 216 6.0 8.0 0.00 0.00 0.00 88 1008.8
20260902100255 60 196 8.0 9.0 0.00 0.00 0.00 88 1008.5
20260902095749 60 182 4.0 5.0 0.00 0.00 0.00 88 1008.6
20260902095244 60 172 10.0 11.0 0.00 0.00 0.00 88 1008.6
20260902094738 60 201 9.0 13.0 0.00 0.00 0.00 88 1008.7
20260902094235 60 198 9.0 11.0 0.00 0.00 0.00 88 1008.5
20260902093734 60 201 4.0 6.0 0.00 0.00 0.00 88 1008.6
20260902093229 60 222 4.0 6.0 0.00 0.00 0.00 87 1008.5
20260902092729 60 188 4.0 5.0 0.00 0.00 0.00 88 1008.8
20260902092224 60 155 5.0 6.0 0.00 0.00 0.00 87 1008.7
20260902091723 61 198 6.0 7.0 0.00 0.00 0.00 87 1008.8
20260902091220 61 171 3.0 3.0 0.00 0.00 0.00 87 1008.8
20260902090716 61 180 8.0 9.0 0.00 0.00 0.00 87 1008.9
20260902090215 61 191 6.0 8.0 0.00 0.00 0.00 87 1009.1
20260902085709 61 193 4.0 6.0 0.00 0.00 0.00 87 1008.8
20260902085204 61 191 2.0 5.0 0.00 0.00 0.00 86 1008.9
20260902084655 61 186 5.0 7.0 0.00 0.00 0.00 86 1009.4
20260902084151 62 191 7.0 10.0 0.00 0.00 0.00 86 1009.4
20260902083646 62 208 2.0 2.0 0.00 0.00 0.00 86 1009.2
20260902083145 62 185 6.0 7.0 0.00 0.00 0.00 86 1009.4
20260902082641 62 199 7.0 8.0 0.00 0.00 0.00 86 1009.2
20260902082137 62 199 8.0 9.0 0.00 0.00 0.00 86 1009.3
20260902081633 62 204 8.0 9.0 0.00 0.00 0.00 86 1009.1
20260902081128 62 208 5.0 6.0 0.00 0.00 0.00 87 1009.4
20260902080623 62 202 3.0 5.0 0.00 0.00 0.00 86 1009.5
20260902080120 62 178 6.0 7.0 0.00 0.00 0.00 86 1009.5
20260902075619 62 194 5.0 7.0 0.00 0.00 0.00 86 1009.4
20260902075116 62 194 4.0 5.0 0.00 0.00 0.00 85 1009.4
20260902074611 62 207 5.0 6.0 0.00 0.00 0.00 83 1009.5
20260902074106 62 195 10.0 10.0 0.00 0.00 0.00 82 1009.5
20260902073601 62 175 7.0 9.0 0.00 0.00 0.00 81 1009.5
20260902073058 62 223 3.0 3.0 0.00 0.00 0.00 81 1009.6
20260902072553 62 160 7.0 9.0 0.00 0.00 0.00 80 1009.4
20260902072050 62 186 9.0 10.0 0.00 0.00 0.00 79 1009.5
20260902071549 62 192 10.0 11.0 0.00 0.00 0.00 79 1009.6
20260902071045 62 222 7.0 9.0 0.00 0.00 0.00 79 1009.7
20260902070540 62 193 6.0 9.0 0.00 0.00 0.00 79 1009.5
20260902070035 62 210 4.0 5.0 0.00 0.00 0.00 79 1009.8
20260902065529 62 195 6.0 8.0 0.00 0.00 0.00 79 1009.5
20260902065024 62 177 8.0 11.0 0.00 0.00 0.00 79 1009.5
20260902064521 61 202 5.0 7.0 0.00 0.00 0.00 80 1009.7
20260902064016 61 193 9.0 9.0 0.00 0.00 0.00 81 1009.6
20260902063515 61 155 4.0 5.0 0.00 0.00 0.00 81 1009.6
20260902063011 61 207 6.0 8.0 0.00 0.00 0.00 81 1009.8
20260902062509 61 239 5.0 6.0 0.00 0.00 0.00 81 1009.7
20260902062005 61 184 4.0 8.0 0.00 0.00 0.00 81 1009.7
20260902061459 61 182 8.0 11.0 0.00 0.00 0.00 81 1009.6
20260902060955 61 256 3.0 5.0 0.00 0.00 0.00 81 1009.6
20260902060451 61 206 5.0 9.0 0.00 0.00 0.00 82 1009.7
20260902055947 62 185 3.0 6.0 0.00 0.00 0.00 82 1009.5
20260902055443 62 185 9.0 10.0 0.00 0.00 0.00 82 1009.7
20260902054938 62 187 7.0 9.0 0.00 0.00 0.00 83 1010.0
20260902054433 62 200 4.0 6.0 0.00 0.00 0.00 83 1009.9
20260902053928 62 201 9.0 13.0 0.00 0.00 0.00 83 1009.6
20260902053424 62 219 7.0 10.0 0.00 0.00 0.00 83 1010.0
20260902052923 62 171 12.0 14.0 0.00 0.00 0.00 83 1009.8
20260902052418 62 200 6.0 8.0 0.00 0.00 0.00 83 1009.7
20260902051914 62 194 7.0 8.0 0.00 0.00 0.00 84 1009.9
20260902051414 62 180 7.0 9.0 0.00 0.00 0.00 84 1009.8
20260902050913 62 199 5.0 6.0 0.00 0.00 0.00 84 1009.7
20260902050413 62 211 6.0 8.0 0.00 0.00 0.00 84 1009.8
20260902045908 62 200 8.0 10.0 0.00 0.00 0.00 84 1009.8
20260902045403 62 182 7.0 9.0 0.00 0.00 0.00 84 1009.8
20260902044859 62 233 7.0 10.0 0.00 0.00 0.00 84 1009.9
20260902044354 62 181 5.0 7.0 0.00 0.00 0.00 84 1009.9
20260902043849 62 193 9.0 10.0 0.00 0.00 0.00 84 1009.8
20260902043344 62 230 7.0 9.0 0.00 0.00 0.00 84 1009.8
20260902042839 62 245 4.0 6.0 0.00 0.00 0.00 84 1009.9
20260902042338 62 194 9.0 11.0 0.00 0.00 0.00 84 1010.0
20260902041834 62 207 5.0 9.0 0.00 0.00 0.00 83 1009.8
20260902041334 63 193 6.0 8.0 0.00 0.00 0.00 83 1009.7
20260902040832 63 189 11.0 15.0 0.00 0.00 0.00 83 1009.6
20260902040328 63 202 7.0 9.0 0.00 0.00 0.00 82 1009.9
20260902035827 63 193 7.0 8.0 0.00 0.00 0.00 81 1009.8
20260902035323 63 206 9.0 13.0 0.00 0.00 0.00 81 1009.7
20260902034821 63 204 5.0 6.0 0.00 0.00 0.00 80 1009.6
20260902034317 63 193 9.0 11.0 0.00 0.00 0.00 80 1009.7
20260902033814 63 190 10.0 13.0 0.00 0.00 0.00 80 1009.7
20260902033310 63 201 10.0 14.0 0.00 0.00 0.00 80 1009.6
20260902032809 63 196 6.0 8.0 0.00 0.00 0.00 80 1009.7
20260902032306 64 186 9.0 9.0 0.00 0.00 0.00 80 1009.5
20260902031804 64 208 10.0 14.0 0.00 0.00 0.00 79 1009.3
20260902031300 64 204 11.0 14.0 0.00 0.00 0.00 80 1009.3
20260902030755 64 203 3.0 3.0 0.00 0.00 0.00 80 1009.3
20260902030250 64 187 5.0 7.0 0.00 0.00 0.00 80 1009.4
20260902025748 64 196 9.0 14.0 0.00 0.00 0.00 80 1009.2
20260902025244 64 195 7.0 10.0 0.00 0.00 0.00 79 1009.3
20260902024738 64 179 4.0 6.0 0.00 0.00 0.00 79 1009.4
20260902024234 64 204 8.0 9.0 0.00 0.00 0.00 79 1009.1
20260902023730 65 196 8.0 13.0 0.00 0.00 0.00 79 1009.1
20260902023225 65 226 7.0 11.0 0.00 0.00 0.00 79 1009.3
20260902022724 65 212 4.0 7.0 0.00 0.00 0.00 79 1009.1
20260902022220 65 186 4.0 8.0 0.00 0.00 0.00 78 1009.3
20260902021715 65 199 9.0 9.0 0.00 0.00 0.00 78 1009.2
20260902021209 65 177 14.0 17.0 0.00 0.00 0.00 77 1009.1
20260902020706 65 181 10.0 13.0 0.00 0.00 0.00 78 1009.5
20260902020202 65 174 3.0 5.0 0.00 0.00 0.00 78 1009.2
20260902015657 65 193 7.0 9.0 0.00 0.00 0.00 77 1009.2
20260902015153 65 187 12.0 14.0 0.00 0.00 0.00 77 1009.3
20260902014649 65 186 5.0 7.0 0.00 0.00 0.00 78 1009.1
20260902014144 65 154 11.0 15.0 0.00 0.00 0.00 78 1009.2
20260902013643 65 232 10.0 13.0 0.00 0.00 0.00 78 1009.2
20260902013139 66 207 8.0 10.0 0.00 0.00 0.00 77 1009.3
20260902012635 66 199 7.0 11.0 0.00 0.00 0.00 77 1009.2
20260902012130 66 183 11.0 14.0 0.00 0.00 0.00 77 1009.2
20260902011626 66 170 9.0 10.0 0.00 0.00 0.00 77 1009.2
20260902011126 66 210 9.0 14.0 0.00 0.00 0.00 77 1009.5
20260902010625 66 145 14.0 17.0 0.00 0.00 0.00 76 1009.4
20260902010121 66 203 7.0 9.0 0.00 0.00 0.00 75 1009.3
20260902005619 66 221 7.0 10.0 0.00 0.00 0.00 75 1009.2
20260902005115 66 208 8.0 11.0 0.00 0.00 0.00 76 1009.1
20260902004614 67 175 8.0 11.0 0.00 0.00 0.00 75 1009.1
20260902004109 67 221 7.0 8.0 0.00 0.00 0.00 75 1009.4
20260902003604 68 167 11.0 13.0 0.00 0.00 0.00 73 1009.3
20260902003100 68 171 6.0 7.0 0.00 0.00 0.00 72 1009.3
20260902002555 68 188 7.0 9.0 0.00 0.00 0.00 73 1009.2
20260902002050 67 199 7.0 9.0 0.00 0.00 0.00 73 1009.4
20260902001545 67 195 9.0 11.0 0.00 0.00 0.00 74 1009.1
20260902001040 67 206 8.0 9.0 0.00 0.00 0.00 74 1009.3
20260902000534 67 190 11.0 14.0 0.00 0.00 0.00 74 1009.1
20260902000030 68 251 7.0 10.0 0.00 0.00 0.00 73 1009.2
20260901235524 68 220 9.0 10.0 0.00 0.00 0.00 72 1009.2
20260901235020 67 180 12.0 15.0 0.00 0.00 0.00 73 1009.4
20260901234518 67 189 7.0 10.0 0.00 0.00 0.00 73 1009.3
20260901234014 68 210 10.0 10.0 0.00 0.00 0.00 73 1009.2
20260901233509 68 235 2.0 3.0 0.00 0.00 0.00 72 1009.2
20260901233005 67 172 8.0 14.0 0.00 0.00 0.00 73 1009.3
20260901232500 67 201 5.0 6.0 0.00 0.00 0.00 73 1009.2
20260901231955 67 209 11.0 14.0 0.00 0.00 0.00 73 1009.2
20260901231451 68 163 7.0 10.0 0.00 0.00 0.00 73 1009.3
20260901230948 69 221 4.0 5.0 0.00 0.00 0.00 71 1009.3
20260901230447 69 241 5.0 9.0 0.00 0.00 0.00 70 1009.4
20260901225942 70 182 12.0 14.0 0.00 0.00 0.00 69 1009.2
20260901225442 69 229 11.0 14.0 0.00 0.00 0.00 70 1009.3
20260901224937 69 221 11.0 13.0 0.00 0.00 0.00 71 1009.3
20260901224433 67 204 7.0 9.0 0.00 0.00 0.00 72 1009.3
20260901223929 68 198 6.0 9.0 0.00 0.00 0.00 71 1009.3
20260901223424 70 193 16.0 20.0 0.00 0.00 0.00 68 1009.3
20260901222920 69 181 5.0 9.0 0.00 0.00 0.00 70 1009.0
20260901222416 69 208 3.0 6.0 0.00 0.00 0.00 70 1009.3
20260901221912 68 197 3.0 5.0 0.00 0.00 0.00 72 1009.3
20260901221408 67 218 6.0 8.0 0.00 0.00 0.00 74 1009.1
20260901220902 67 196 8.0 9.0 0.00 0.00 0.00 73 1009.4
20260901220401 67 186 7.0 9.0 0.00 0.00 0.00 72 1009.4
20260901215900 68 275 4.0 7.0 0.00 0.00 0.00 73 1009.4
20260901215359 68 212 5.0 9.0 0.00 0.00 0.00 72 1009.3
20260901214858 69 258 9.0 10.0 0.00 0.00 0.00 71 1009.6
20260901214357 69 210 5.0 7.0 0.00 0.00 0.00 69 1009.5
20260901213856 69 207 5.0 8.0 0.00 0.00 0.00 70 1009.5
20260901213352 69 200 6.0 7.0 0.00 0.00 0.00 70 1009.7
20260901212851 70 248 5.0 6.0 0.00 0.00 0.00 69 1009.5
20260901212347 69 222 5.0 6.0 0.00 0.00 0.00 69 1009.5
20260901211843 69 201 10.0 11.0 0.00 0.00 0.00 72 1009.6
20260901211338 68 217 7.0 9.0 0.00 0.00 0.00 73 1009.5
20260901210834 67 135 13.0 16.0 0.00 0.00 0.00 73 1009.5
20260901210329 68 216 7.0 9.0 0.00 0.00 0.00 72 1009.7
20260901205825 70 283 6.0 9.0 0.00 0.00 0.00 70 1009.7
20260901205320 69 222 11.0 14.0 0.00 0.00 0.00 71 1009.8
20260901204815 70 160 7.0 8.0 0.00 0.00 0.00 67 1009.5
20260901204312 70 228 5.0 6.0 0.00 0.00 0.00 69 1009.6
20260901203811 71 255 0.0 0.0 0.00 0.00 0.00 67 1009.6
20260901203306 71 176 3.0 5.0 0.00 0.00 0.00 68 1009.8
20260901202800 70 186 12.0 16.0 0.00 0.00 0.00 67 1009.6
20260901202255 71 261 4.0 5.0 0.00 0.00 0.00 68 1009.7
20260901201751 71 186 7.0 9.0 0.00 0.00 0.00 66 1009.7
20260901201250 70 217 7.0 10.0 0.00 0.00 0.00 68 1009.6
20260901200744 69 206 11.0 13.0 0.00 0.00 0.00 69 1009.8
20260901200240 69 221 7.0 10.0 0.00 0.00 0.00 71 1009.7
20260901195738 69 193 13.0 17.0 0.00 0.00 0.00 70 1009.9
20260901195232 70 253 5.0 7.0 0.00 0.00 0.00 69 1009.9
20260901194727 69 187 11.0 14.0 0.00 0.00 0.00 69 1009.9
20260901194217 68 212 6.0 10.0 0.00 0.00 0.00 71 1009.7
20260901193713 68 208 8.0 9.0 0.00 0.00 0.00 72 1009.7
20260901193212 68 185 12.0 15.0 0.00 0.00 0.00 71 1009.8
20260901192707 69 208 14.0 18.0 0.00 0.00 0.00 70 1010.1
20260901192202 68 178 4.0 5.0 0.00 0.00 0.00 72 1010.0
20260901191658 68 187 9.0 13.0 0.00 0.00 0.00 72 1010.1
20260901191154 67 186 11.0 13.0 0.00 0.00 0.00 74 1009.9
20260901190650 68 214 11.0 13.0 0.00 0.00 0.00 73 1010.1
20260901190148 68 223 6.0 7.0 0.00 0.00 0.00 73 1009.9
20260901185648 67 271 7.0 11.0 0.00 0.00 0.00 74 1009.9
20260901185145 67 201 5.0 8.0 0.00 0.00 0.00 75 1010.1
20260901184643 67 178 11.0 15.0 0.00 0.00 0.00 76 1010.4
20260901184137 66 244 4.0 6.0 0.00 0.00 0.00 76 1010.1
20260901183632 66 190 5.0 7.0 0.00 0.00 0.00 76 1009.9
20260901183127 65 231 4.0 7.0 0.00 0.00 0.00 79 1010.0
20260901182623 66 205 6.0 7.0 0.00 0.00 0.00 76 1010.1
20260901182122 65 242 3.0 5.0 0.00 0.00 0.00 77 1010.0
20260901181622 65 221 5.0 7.0 0.00 0.00 0.00 79 1010.1
20260901181122 64 242 1.0 2.0 0.00 0.00 0.00 80 1010.1
20260901180616 64 264 1.0 1.0 0.00 0.00 0.00 80 1010.1
20260901180110 64 225 3.0 5.0 0.00 0.00 0.00 81 1010.2
20260901175609 63 250 5.0 7.0 0.00 0.00 0.00 82 1009.8
20260901175104 63 243 6.0 9.0 0.00 0.00 0.00 82 1010.0
20260901174559 63 259 2.0 3.0 0.00 0.00 0.00 83 1009.9
20260901174055 63 180 7.0 9.0 0.00 0.00 0.00 82 1009.8
20260901173550 62 253 5.0 8.0 0.00 0.00 0.00 84 1009.9
20260901173046 62 191 4.0 5.0 0.00 0.00 0.00 85 1009.8
20260901172541 61 201 12.0 14.0 0.00 0.00 0.00 85 1009.9
20260901172039 61 196 12.0 14.0 0.00 0.00 0.00 86 1009.9
20260901171539 61 187 11.0 13.0 0.00 0.00 0.00 86 1010.0
20260901171038 61 193 6.0 7.0 0.00 0.00 0.00 86 1009.8
20260901170537 61 203 10.0 11.0 0.00 0.00 0.00 86 1009.8
20260901170033 60 181 6.0 7.0 0.00 0.00 0.00 87 1010.0
20260901165532 60 168 8.0 10.0 0.00 0.00 0.00 87 1010.0
20260901165028 60 167 7.0 9.0 0.00 0.00 0.00 88 1009.9
20260901164523 60 190 7.0 9.0 0.00 0.00 0.00 88 1009.9
20260901164018 60 203 12.0 14.0 0.00 0.00 0.00 88 1010.0
20260901163514 60 177 12.0 16.0 0.00 0.00 0.00 88 1010.0
20260901163012 60 139 5.0 6.0 0.00 0.00 0.00 88 1009.8
20260901162508 60 182 9.0 11.0 0.00 0.00 0.00 89 1009.9
20260901162007 60 159 8.0 8.0 0.00 0.00 0.00 89 1010.0
20260901161507 60 179 6.0 7.0 0.00 0.00 0.00 89 1010.0
20260901161001 59 174 5.0 6.0 0.00 0.00 0.00 90 1010.1
20260901160457 59 172 4.0 5.0 0.00 0.00 0.00 90 1010.3
20260901155956 59 181 10.0 11.0 0.00 0.00 0.00 90 1010.1
20260901155456 59 125 9.0 13.0 0.00 0.00 0.00 90 1009.9
20260901154952 59 180 4.0 6.0 0.00 0.00 0.00 90 1010.2
20260901154452 59 189 11.0 13.0 0.00 0.00 0.00 90 1010.1
20260901153947 59 189 4.0 6.0 0.00 0.00 0.00 91 1010.2
20260901153441 59 191 5.0 6.0 0.00 0.00 0.00 91 1010.3
20260901152940 59 212 2.0 2.0 0.00 0.00 0.00 91 1010.3
20260901152435 59 222 5.0 6.0 0.00 0.00 0.00 92 1010.1
20260901151935 59 228 3.0 3.0 0.00 0.00 0.00 92 1010.3
20260901151430 58 201 4.0 7.0 0.00 0.00 0.00 92 1010.3
20260901150929 58 190 5.0 6.0 0.00 0.00 0.00 93 1010.3
20260901150427 58 199 5.0 6.0 0.00 0.00 0.00 93 1010.3
20260901145924 58 214 6.0 7.0 0.00 0.00 0.00 94 1010.1
20260901145419 58 157 3.0 5.0 0.00 0.00 0.00 94 1010.1
20260901144914 58 183 4.0 5.0 0.00 0.00 0.00 94 1010.1
20260901144409 57 234 0.0 0.0 0.00 0.00 0.00 94 1010.0
20260901143905 57 220 0.0 0.0 0.00 0.00 0.00 94 1010.1
20260901143401 57 239 3.0 5.0 0.00 0.00 0.00 94 1010.0
20260901142857 57 262 1.0 1.0 0.00 0.00 0.00 95 1010.1
20260901142356 57 228 2.0 2.0 0.00 0.00 0.00 95 1010.1
20260901141851 57 261 3.0 3.0 0.00 0.00 0.00 95 1010.1
20260901141346 57 264 0.0 0.0 0.00 0.00 0.00 95 1009.9
20260901140845 57 249 7.0 9.0 0.00 0.00 0.00 95 1009.8
20260901140343 57 251 3.0 3.0 0.00 0.00 0.00 94 1009.8
20260901135838 57 270 1.0 3.0 0.00 0.00 0.00 94 1009.6
20260901135334 57 236 2.0 2.0 0.00 0.00 0.00 94 1010.0
20260901134829 57 247 2.0 3.0 0.00 0.00 0.00 94 1010.0
20260901134325 57 268 3.0 5.0 0.00 0.00 0.00 93 1009.9
20260901133819 57 281 10.0 13.0 0.00 0.00 0.00 92 1009.8
20260901133318 58 229 7.0 9.0 0.00 0.00 0.00 90 1009.8
20260901132817 58 267 3.0 5.0 0.00 0.00 0.00 88 1009.8
20260901132312 58 254 1.0 2.0 0.00 0.00 0.00 86 1009.6
20260901131806 58 268 1.0 1.0 0.00 0.00 0.00 86 1009.4
20260901131306 58 243 3.0 3.0 0.00 0.00 0.00 86 1009.4
20260901130800 59 280 0.0 0.0 0.00 0.00 0.00 86 1009.5
20260901130255 59 257 0.0 0.0 0.00 0.00 0.00 87 1009.4
20260901125752 58 268 0.0 0.0 0.00 0.00 0.00 88 1009.4
20260901125247 58 279 0.0 0.0 0.00 0.00 0.00 89 1009.4
20260901124742 58 308 0.0 0.0 0.00 0.00 0.00 89 1009.1
20260901124237 58 280 0.0 0.0 0.00 0.00 0.00 89 1009.2
20260901123736 58 291 0.0 0.0 0.00 0.00 0.00 90 1009.4
20260901123231 58 281 0.0 0.0 0.00 0.00 0.00 90 1009.3
20260901122730 57 279 0.0 0.0 0.00 0.00 0.00 90 1009.2
20260901122225 57 280 0.0 0.0 0.00 0.00 0.00 90 1009.3
20260901121719 57 279 0.0 0.0 0.00 0.00 0.00 90 1009.2
20260901121214 57 279 0.0 0.0 0.00 0.00 0.00 90 1009.0
20260901120714 57 289 0.0 0.0 0.00 0.00 0.00 90 1009.0
20260901120209 57 277 0.0 0.0 0.00 0.00 0.00 90 1009.0
20260901115704 57 281 0.0 0.0 0.00 0.00 0.00 90 1009.1
20260901115200 57 284 0.0 0.0 0.00 0.00 0.00 90 1009.0
20260901114657 56 280 0.0 0.0 0.00 0.00 0.00 91 1009.1
20260901114156 56 291 0.0 0.0 0.00 0.00 0.00 91 1008.9
20260901113655 56 285 0.0 0.0 0.00 0.00 0.00 91 1008.8